1495537200.99,1417,17.38,74068.0,0.45,-1.47,-1.29,0,*77
1495537202.22,1418,17.38,74068.0,0.47,-1.39,-1.29,0,*73
1495537203.42,1419,17.38,74066.8,0.45,-1.39,-1.29,0,*70
1495537204.63,1420,17.44,74070.5,0.45,-1.39,-1.25,0,*76
1495537205.86,1421,17.38,74066.3,0.47,-1.39,-1.29,0,*79
1495537207.09,1422,17.38,74068.3,0.47,-1.39,-1.29,0,*7A
1495537208.29,1423,17.44,74068.8,0.45,-1.39,-1.29,0,*79
1495537209.52,1424,17.38,74064.5,0.47,-1.35,-1.29,0,*70
1495537210.75,1425,17.38,74066.0,0.47,-1.39,-1.29,0,*7D
1495537212.0,1426,17.38,74066.8,0.47,-1.47,-1.39,0,*76
1495537213.2,1427,17.44,74070.5,0.45,-1.47,-1.29,0,*74
1495537214.43,1428,17.38,74066.0,0.47,-1.47,-1.29,0,*79
1495537215.66,1429,17.38,74068.0,0.47,-1.39,-1.25,0,*7D
1495537216.89,1430,17.38,74064.5,0.47,-1.39,-1.25,0,*75
1495537218.12,1431,17.38,74060.8,0.47,-1.39,-1.29,0,*78
1495537219.32,1432,17.38,74066.0,0.45,-1.35,-1.29,0,*75
1495537220.54,1433,17.38,74068.0,0.47,-1.35,-1.29,0,*76
1495537221.77,1434,17.38,74066.8,0.47,-1.39,-1.25,0,*71
1495537222.97,1435,17.38,74066.3,0.45,-1.39,-1.29,0,*7E
1495537224.17,1436,17.38,74068.0,0.45,-1.35,-1.25,0,*7D
1495537225.37,1437,17.38,74066.5,0.45,-1.35,-1.29,0,*70
1495537226.59,1438,17.38,74064.3,0.47,-1.35,-1.25,0,*71
1495537227.82,1439,17.38,74066.8,0.47,-1.39,-1.29,0,*70
1495537229.02,1440,17.38,74066.5,0.45,-1.35,-1.25,0,*7C
1495537230.21,1441,17.38,74066.8,0.45,-1.35,-1.25,0,*7D
1495537231.41,1442,17.38,74068.5,0.45,-1.35,-1.29,0,*72
1495537232.64,1443,17.38,74064.0,0.47,-1.35,-1.25,0,*7D
1495537233.86,1444,17.38,74068.5,0.47,-1.35,-1.25,0,*7A
1495537235.08,1445,17.38,74064.5,0.47,-1.35,-1.29,0,*77
1495537236.3,1446,17.38,74066.3,0.47,-1.35,-1.29,0,*74
1495537237.5,1447,17.38,74064.5,0.47,-1.25,-1.17,0,*79
1495537238.73,1448,17.38,74064.3,0.47,-1.35,-1.17,0,*77
1495537239.93,1449,17.38,74068.5,0.47,-1.25,-1.17,0,*77
1495537241.13,1450,17.38,74064.0,0.47,-1.25,-1.17,0,*7F
1495537242.33,1451,17.38,74064.5,0.45,-1.29,-1.13,0,*74
1495537243.51,1452,17.38,74070.3,0.45,-1.29,-1.17,0,*73
1495537244.71,1453,17.38,74068.5,0.47,-1.25,-1.17,0,*7C
1495537245.92,1454,17.38,74064.5,0.45,-1.39,-1.29,0,*79
1495537247.14,1455,17.38,74066.8,0.47,-1.39,-1.25,0,*76
1495537248.37,1456,17.38,74070.0,0.47,-1.39,-1.25,0,*75
1495537249.59,1457,17.38,74068.8,0.47,-1.35,-1.29,0,*74
1495537250.77,1458,17.38,74068.8,0.45,-1.29,-1.25,0,*78
1495537251.97,1459,17.38,74068.0,0.45,-1.35,-1.25,0,*74
1495537253.16,1460,17.38,74066.3,0.45,-1.35,-1.25,0,*7E
1495537254.37,1461,17.38,74066.3,0.45,-1.35,-1.17,0,*7E
1495537255.57,1462,17.38,74068.0,0.47,-1.29,-1.17,0,*72
1495537256.77,1463,17.38,74064.5,0.47,-1.25,-1.17,0,*7F
1495537257.97,1464,17.38,74064.0,0.47,-1.29,-1.17,0,*74
1495537259.17,1465,17.38,74066.5,0.45,-1.29,-1.13,0,*73
1495537260.37,1466,17.38,74064.0,0.47,-1.29,-1.17,0,*76
1495537261.57,1467,17.38,74066.8,0.45,-1.25,-1.13,0,*7D
1495537262.79,1468,17.38,74066.3,0.47,-1.25,-1.13,0,*70
1495537263.99,1469,17.38,74066.3,0.47,-1.29,-1.17,0,*79
1495537265.19,1470,17.38,74064.0,0.45,-1.25,-1.13,0,*7B
1495537266.37,1471,17.38,74066.0,0.45,-1.29,-1.17,0,*72
1495537267.59,1472,17.38,74064.8,0.47,-1.29,-1.13,0,*77
1495537268.8,1473,17.38,74064.0,0.47,-1.29,-1.17,0,*72
1495537270.02,1474,17.38,74070.3,0.47,-1.29,-1.13,0,*71
1495537271.25,1475,17.38,74064.8,0.47,-1.17,-1.13,0,*7D
1495537272.44,1476,17.38,74066.3,0.45,-1.25,-1.13,0,*7D
1495537273.67,1477,17.38,74064.3,0.47,-1.29,-1.13,0,*72
1495537274.89,1478,17.38,74064.0,0.47,-1.29,-1.13,0,*7D
1495537276.09,1479,17.38,74064.5,0.45,-1.25,-1.13,0,*72
1495537277.31,1480,17.38,74066.0,0.47,-1.25,-1.09,0,*7D
1495537278.54,1481,17.38,74066.8,0.47,-1.17,-1.09,0,*7D
1495537279.76,1482,17.44,74070.5,0.47,-1.25,-1.09,0,*7F
1495537280.98,1483,17.38,74070.0,0.47,-1.25,-1.13,0,*75
1495537282.19,1484,17.38,74066.5,0.47,-1.17,-1.17,0,*77
1495537283.39,1485,17.38,74064.5,0.45,-1.17,-1.13,0,*70
1495537284.61,1486,17.38,74068.0,0.47,-1.25,-1.13,0,*70
1495537285.82,1487,17.38,74066.0,0.47,-1.17,-1.17,0,*74
1495537287.04,1488,17.38,74064.8,0.47,-1.17,-1.13,0,*7F
1495537288.27,1489,17.38,74064.8,0.47,-1.25,-1.13,0,*7F
1495537289.48,1490,17.38,74064.3,0.47,-1.25,-1.13,0,*77
1495537290.71,1491,17.44,74068.5,0.47,-1.17,-1.13,0,*77
1495537291.94,1492,17.38,74066.8,0.47,-1.17,-1.09,0,*7F
1495537293.15,1493,17.38,74068.5,0.47,-1.17,-1.17,0,*71
1495537294.35,1494,17.38,74064.0,0.45,-1.17,-1.13,0,*70
1495537295.57,1495,17.38,74068.0,0.47,-1.25,-1.13,0,*72
1495537296.77,1496,17.38,74066.0,0.45,-1.29,-1.13,0,*7F
1495537297.97,1497,17.38,74064.8,0.47,-1.25,-1.17,0,*74
1495537299.2,1498,17.38,74068.0,0.47,-1.17,-1.13,0,*7E
1495537300.42,1499,17.38,74066.8,0.47,-1.17,-1.13,0,*7F
1495537301.65,1500,17.38,74068.3,0.47,-1.17,-1.13,0,*7E
1495537302.87,1501,17.38,74064.8,0.47,-1.17,-1.13,0,*7F
1495537304.08,1502,17.38,74064.5,0.47,-1.17,-1.17,0,*78
1495537305.31,1503,17.38,74068.0,0.47,-1.17,-1.09,0,*76
1495537306.52,1504,17.38,74070.3,0.45,-1.17,-1.01,0,*7B
1495537307.76,1505,17.38,74064.8,0.47,-1.13,-1.13,0,*7F
1495537308.97,1506,17.38,74068.0,0.45,-1.17,-1.01,0,*79
1495537310.19,1507,17.38,74066.0,0.47,-1.25,-1.13,0,*78
1495537311.41,1508,17.38,74066.3,0.47,-1.17,-1.13,0,*76
1495537312.64,1509,17.38,74068.0,0.47,-1.17,-1.13,0,*77
1495537313.86,1510,17.38,74070.5,0.47,-1.25,-1.13,0,*7E
1495537315.06,1511,17.38,74066.0,0.45,-1.25,-1.13,0,*7D
1495537316.26,1512,17.44,74068.0,0.45,-1.17,-1.13,0,*7F
1495537317.46,1513,17.38,74068.5,0.47,-1.25,-1.17,0,*79
1495537318.66,1514,17.38,74068.0,0.47,-1.25,-1.17,0,*7E
1495537319.86,1515,17.38,74066.3,0.45,-1.17,-1.09,0,*73
1495537321.07,1516,17.38,74068.3,0.45,-1.17,-1.09,0,*70
1495537322.27,1517,17.38,74066.5,0.45,-1.17,-1.09,0,*71
1495537323.48,1518,17.38,74066.5,0.45,-1.17,-1.09,0,*7E
1495537324.7,1519,17.38,74068.8,0.45,-1.13,-1.09,0,*7B
1495537325.95,1520,17.38,74066.3,0.47,-1.13,-1.09,0,*73
1495537327.2,1521,17.38,74070.0,0.47,-1.13,-1.09,0,*72
1495537328.43,1522,17.38,74068.0,0.47,-1.17,-1.09,0,*75
1495537329.63,1523,17.38,74068.0,0.45,-1.17,-1.13,0,*7D
1495537330.84,1524,17.38,74070.8,0.45,-1.17,-1.01,0,*79
1495537332.08,1525,17.38,74070.0,0.47,-1.13,-1.09,0,*76
1495537333.31,1526,17.38,74068.8,0.45,-1.13,-1.09,0,*77
1495537334.56,1527,17.38,74066.5,0.47,-1.13,-1.09,0,*74
1495537335.78,1528,17.38,74066.5,0.45,-1.13,-1.01,0,*71
1495537336.99,1529,17.38,74070.5,0.45,-1.17,-1.09,0,*7C
1495537338.21,1530,17.38,74070.5,0.45,-1.13,-1.09,0,*70
1495537339.44,1531,17.38,74070.0,0.45,-1.13,-1.09,0,*71
1495537340.69,1532,17.38,74066.8,0.47,-1.13,-1.01,0,*78
1495537341.93,1533,17.44,74070.3,0.47,-1.13,-1.01,0,*79
1495537343.18,1534,17.38,74066.5,0.47,-1.13,-1.01,0,*7E
1495537344.43,1535,17.38,74068.8,0.47,-1.13,-1.01,0,*7F
1495537345.67,1536,17.44,74070.8,0.51,-1.09,-0.97,0,*4E
1495537346.92,1537,17.38,74068.0,0.47,-1.13,-1.01,0,*7D
1495537348.17,1538,17.38,74070.5,0.47,-1.13,-1.09,0,*7A
1495537349.42,1539,17.38,74066.0,0.47,-1.09,-1.01,0,*78
1495537350.67,1540,17.38,74070.5,0.47,-1.13,-1.01,0,*7D
1495537351.91,1541,17.44,74072.5,0.47,-1.09,-1.01,0,*77
1495537353.16,1542,17.38,74070.5,0.47,-1.13,-1.01,0,*7F
1495537354.39,1543,17.38,74068.0,0.45,-1.13,-1.09,0,*74
1495537355.61,1544,17.44,74072.0,0.45,-1.13,-1.01,0,*7B
1495537356.84,1545,17.38,74070.3,0.45,-1.13,-1.01,0,*7A
1495537358.09,1546,17.38,74068.8,0.47,-1.13,-1.01,0,*7B
1495537359.33,1547,17.38,74068.0,0.47,-1.13,-1.01,0,*7A
1495537360.58,1548,17.38,74070.3,0.47,-1.13,-1.01,0,*75
1495537361.81,1549,17.38,74070.5,0.45,-1.13,-1.09,0,*7E
1495537363.04,1550,17.38,74064.3,0.47,-1.17,-1.01,0,*78
1495537364.26,1551,17.38,74068.5,0.45,-1.13,-1.09,0,*77
1495537365.51,1552,17.38,74070.5,0.47,-1.09,-1.01,0,*75
1495537366.76,1553,17.38,74068.3,0.47,-1.13,-1.01,0,*7F
1495537367.98,1554,17.38,74068.3,0.45,-1.09,-1.09,0,*79
1495537369.23,1555,17.38,74068.8,0.47,-1.13,-1.09,0,*71
1495537370.45,1556,17.38,74070.3,0.45,-1.13,-1.01,0,*78
1495537371.7,1557,17.38,74068.5,0.47,-1.13,-1.09,0,*73
1495537372.95,1558,17.38,74064.8,0.47,-1.13,-1.01,0,*74
1495537374.17,1559,17.38,74068.0,0.45,-1.13,-1.09,0,*7F
1495537375.42,1560,17.38,74070.0,0.47,-1.13,-1.09,0,*77
1495537376.67,1561,17.38,74068.8,0.47,-1.13,-1.09,0,*76
1495537377.92,1562,17.38,74066.5,0.47,-1.13,-1.09,0,*75
1495537379.17,1563,17.38,74068.8,0.47,-1.13,-1.01,0,*7C
1495537380.4,1564,17.38,74070.3,0.45,-1.13,-1.01,0,*79
1495537381.64,1565,17.38,74070.3,0.47,-1.13,-1.09,0,*72
1495537382.87,1566,17.38,74068.0,0.45,-1.09,-1.09,0,*78
1495537384.12,1567,17.38,74068.5,0.47,-1.13,-1.01,0,*78
1495537385.36,1568,17.38,74068.5,0.47,-1.13,-1.01,0,*77
1495537386.57,1569,17.38,74070.5,0.45,-1.17,-1.13,0,*73
1495537387.74,1570,17.38,74070.3,0.43,-1.25,-1.17,0,*78
1495537388.94,1571,17.38,74066.8,0.47,-1.25,-1.17,0,*7D
1495537390.12,1572,17.38,74068.8,0.45,-1.17,-1.17,0,*7D
1495537391.37,1573,17.38,74068.5,0.47,-1.13,-1.13,0,*7E
1495537392.62,1574,17.38,74070.8,0.47,-1.13,-1.09,0,*72
1495537393.84,1575,17.44,74072.8,0.45,-1.13,-1.13,0,*7A
1495537395.04,1576,17.38,74068.3,0.45,-1.17,-1.09,0,*76
1495537396.27,1577,17.38,74064.8,0.45,-1.13,-1.01,0,*7B
1495537397.52,1578,17.38,74064.3,0.47,-1.13,-1.09,0,*7E
1495537398.74,1579,17.38,74070.5,0.47,-1.17,-1.09,0,*7B
1495537399.99,1580,17.38,74068.8,0.47,-1.13,-1.09,0,*79
1495537401.24,1581,17.38,74070.3,0.47,-1.09,-1.01,0,*7B
1495537402.45,1582,17.38,74068.8,0.45,-1.17,-1.01,0,*75
1495537403.69,1583,17.38,74070.5,0.47,-1.13,-1.09,0,*7A
1495537404.94,1584,17.38,74070.5,0.47,-1.09,-1.01,0,*7E
1495537406.16,1585,17.38,74068.3,0.45,-1.09,-1.01,0,*7D
1495537407.38,1586,17.38,74070.5,0.45,-1.09,-1.01,0,*7E
1495537408.63,1587,17.38,74070.5,0.47,-1.09,-1.01,0,*7D
1495537409.88,1588,17.38,74072.3,0.47,-1.09,-1.01,0,*72
1495537411.12,1589,17.38,74070.0,0.47,-1.09,-1.01,0,*73
1495537412.37,1590,17.38,74068.8,0.47,-1.01,-1.01,0,*73
1495537413.62,1591,17.38,74068.3,0.47,-1.01,-1.09,0,*7A
1495537414.85,1592,17.38,74070.3,0.45,-1.01,-1.01,0,*73
1495537416.09,1593,17.38,74068.5,0.47,-1.09,-1.09,0,*70
1495537417.32,1594,17.38,74068.8,0.45,-1.13,-1.09,0,*7E
1495537418.53,1595,17.38,74066.5,0.45,-1.09,-1.13,0,*7F
1495537419.76,1596,17.38,74070.3,0.45,-1.13,-1.09,0,*7C
1495537420.98,1597,17.38,74064.8,0.45,-1.13,-1.09,0,*7D
1495537422.21,1598,17.38,74068.8,0.45,-1.13,-1.01,0,*7A
1495537423.45,1599,17.38,74068.5,0.47,-1.09,-1.13,0,*71
1495537424.66,1600,17.38,74068.5,0.45,-1.17,-1.09,0,*74
1495537425.89,1601,17.38,74066.8,0.47,-1.17,-1.09,0,*77
1495537427.09,1602,17.38,74068.3,0.45,-1.17,-1.13,0,*7D
1495537428.34,1603,17.38,74068.8,0.47,-1.13,-1.09,0,*71
1495537429.56,1604,17.38,74070.3,0.45,-1.13,-1.09,0,*74
1495537430.79,1605,17.38,74068.5,0.45,-1.13,-1.09,0,*75
1495537432.01,1606,17.38,74068.0,0.45,-1.09,-1.09,0,*7D
1495537433.25,1607,17.38,74066.0,0.47,-1.09,-1.09,0,*7E
1495537434.47,1608,17.44,74068.0,0.45,-1.09,-1.09,0,*73
1495537435.72,1609,17.38,74068.5,0.47,-1.09,-1.09,0,*70
1495537436.94,1610,17.38,74068.0,0.45,-1.09,-1.09,0,*7A
1495537438.19,1611,17.38,74068.5,0.47,-1.09,-1.01,0,*71
1495537439.41,1612,17.38,74066.5,0.45,-1.13,-1.09,0,*73
1495537440.63,1613,17.38,74066.8,0.45,-1.09,-1.09,0,*79
1495537441.85,1614,17.38,74070.0,0.45,-1.09,-1.09,0,*7E
1495537443.1,1615,17.38,74066.0,0.47,-1.09,-1.09,0,*7D
1495537444.32,1616,17.38,74068.8,0.45,-1.09,-1.13,0,*77
1495537445.57,1617,17.38,74068.3,0.47,-1.13,-1.09,0,*74
1495537446.79,1618,17.38,74066.8,0.45,-1.09,-1.13,0,*79
1495537448.04,1619,17.38,74068.5,0.47,-1.13,-1.09,0,*7A
1495537449.26,1620,17.38,74066.0,0.45,-1.09,-1.13,0,*72
1495537450.5,1621,17.38,74068.0,0.47,-1.13,-1.09,0,*71
1495537451.73,1622,17.38,74066.8,0.45,-1.01,-1.09,0,*73
1495537452.97,1623,17.38,74068.3,0.47,-1.09,-1.13,0,*73
1495537454.22,1624,17.38,74070.5,0.47,-1.01,-1.09,0,*77
1495537455.46,1625,17.38,74068.0,0.47,-1.09,-1.13,0,*75
1495537456.71,1626,17.38,74064.5,0.47,-1.09,-1.09,0,*7D
1495537457.96,1627,17.38,74068.5,0.47,-1.01,-1.13,0,*7F
1495537459.18,1628,17.38,74068.0,0.45,-1.09,-1.01,0,*79
1495537460.42,1629,17.38,74070.8,0.47,-1.09,-1.09,0,*72
1495537461.65,1630,17.38,74068.0,0.45,-1.09,-1.09,0,*78
1495537462.87,1631,17.38,74068.3,0.45,-1.09,-1.09,0,*79
1495537464.11,1632,17.38,74070.3,0.47,-1.09,-1.09,0,*78
1495537465.33,1633,17.38,74068.5,0.45,-1.09,-1.09,0,*7B
1495537466.58,1634,17.38,74068.5,0.47,-1.01,-1.09,0,*76
1495537467.83,1635,17.38,74070.0,0.47,-1.01,-1.09,0,*77
1495537469.05,1636,17.38,74070.3,0.45,-1.09,-1.01,0,*76
1495537470.3,1637,17.38,74070.3,0.47,-1.01,-1.09,0,*75
1495537471.55,1638,17.38,74068.0,0.47,-1.01,-1.09,0,*7A
1495537472.8,1639,17.38,74066.5,0.47,-1.01,-1.09,0,*7B
1495537474.04,1640,17.38,74068.8,0.47,-1.09,-1.13,0,*76
1495537475.26,1641,17.44,74072.5,0.45,-1.09,-1.09,0,*7E
1495537476.49,1642,17.38,74064.0,0.45,-1.09,-1.09,0,*7D
1495537477.71,1643,17.38,74064.0,0.45,-1.13,-1.13,0,*7C
1495537478.93,1644,17.38,74070.3,0.45,-1.09,-1.13,0,*70
1495537480.15,1645,17.38,74068.0,0.47,-1.09,-1.17,0,*77
1495537481.37,1646,17.38,74068.3,0.45,-1.09,-1.13,0,*72
1495537482.61,1647,17.38,74070.3,0.47,-1.09,-1.13,0,*71
1495537483.83,1648,17.38,74070.5,0.45,-1.09,-1.13,0,*7C
1495537485.06,1649,17.38,74068.5,0.47,-1.01,-1.17,0,*73
1495537486.3,1650,17.38,74070.0,0.47,-1.09,-1.13,0,*77
1495537487.55,1651,17.38,74068.5,0.47,-1.09,-1.13,0,*76
1495537488.8,1652,17.38,74068.0,0.47,-1.13,-1.09,0,*75
1495537490.02,1653,17.38,74070.0,0.47,-1.13,-1.17,0,*7B
1495537491.22,1654,17.38,74070.5,0.45,-1.13,-1.17,0,*7E
1495537492.45,1655,17.38,74066.0,0.47,-1.09,-1.17,0,*76
1495537493.69,1656,17.38,74068.3,0.47,-1.13,-1.13,0,*7A
1495537494.89,1657,17.38,74070.5,0.45,-1.09,-1.17,0,*76
1495537496.12,1658,17.38,74068.8,0.47,-1.09,-1.17,0,*7B
1495537497.34,1659,17.38,74070.8,0.45,-1.13,-1.13,0,*77
1495537498.56,1660,17.38,74068.8,0.45,-1.09,-1.13,0,*76
1495537499.78,1661,17.38,74070.0,0.47,-1.09,-1.17,0,*71
1495537500.98,1662,17.38,74070.3,0.43,-1.13,-1.17,0,*7D
1495537502.23,1663,17.38,74068.3,0.47,-1.13,-1.13,0,*7C
1495537503.45,1664,17.38,74068.3,0.45,-1.01,-1.13,0,*7A
1495537504.65,1665,17.38,74064.3,0.45,-1.01,-1.17,0,*7F
1495537505.89,1666,17.38,74068.3,0.47,-1.09,-1.13,0,*72
1495537507.14,1667,17.38,74068.0,0.47,-1.09,-1.13,0,*73
1495537508.34,1668,17.38,74068.5,0.45,-1.01,-1.17,0,*72
1495537509.56,1669,17.38,74066.3,0.45,-1.09,-1.13,0,*7F
1495537510.8,1670,17.38,74066.0,0.47,-1.09,-1.13,0,*75
1495537512.02,1671,17.38,74068.0,0.45,-1.09,-1.13,0,*76
1495537513.24,1672,17.38,74066.8,0.45,-1.01,-1.13,0,*7D
1495537514.46,1673,17.38,74068.3,0.45,-1.09,-1.13,0,*74
1495537515.68,1674,17.38,74070.3,0.45,-1.09,-1.13,0,*73
1495537516.92,1675,17.38,74068.5,0.47,-1.09,-1.13,0,*70
1495537518.14,1676,17.38,74068.8,0.45,-1.09,-1.13,0,*71
1495537519.35,1677,17.38,74066.8,0.47,-1.17,-1.17,0,*79
1495537520.58,1678,17.38,74068.0,0.47,-1.17,-1.13,0,*72
1495537521.8,1679,17.44,74072.8,0.47,-1.13,-1.17,0,*73
1495537522.98,1680,17.38,74064.0,0.45,-1.17,-1.25,0,*72
1495537524.21,1681,17.38,74070.5,0.47,-1.13,-1.25,0,*75
1495537525.41,1682,17.38,74070.5,0.45,-1.13,-1.29,0,*78
1495537526.61,1683,17.38,74068.8,0.47,-1.17,-1.25,0,*73
1495537527.81,1684,17.38,74068.5,0.45,-1.13,-1.17,0,*73
1495537529.02,1685,17.38,74064.3,0.45,-1.13,-1.17,0,*72
1495537530.22,1686,17.38,74068.8,0.47,-1.17,-1.25,0,*76
1495537531.42,1687,17.38,74068.0,0.47,-1.17,-1.25,0,*77
1495537532.59,1688,17.38,74068.5,0.45,-1.25,-1.25,0,*7B
1495537533.77,1689,17.38,74068.0,0.45,-1.17,-1.25,0,*7B
1495537534.98,1690,17.38,74070.0,0.47,-1.17,-1.29,0,*7D
1495537536.18,1691,17.38,74070.5,0.45,-1.13,-1.25,0,*76
1495537537.36,1692,17.38,74066.3,0.45,-1.17,-1.25,0,*71
1495537538.56,1693,17.38,74066.8,0.47,-1.17,-1.25,0,*72
1495537539.76,1694,17.38,74070.5,0.47,-1.25,-1.25,0,*74
1495537540.95,1695,17.38,74064.8,0.47,-1.25,-1.25,0,*75
1495537542.16,1696,17.38,74068.0,0.47,-1.29,-1.29,0,*76
1495537543.33,1697,17.38,74068.0,0.45,-1.25,-1.25,0,*75
1495537544.5,1698,17.38,74064.3,0.45,-1.25,-1.25,0,*7A
1495537545.67,1699,17.38,74064.3,0.45,-1.25,-1.25,0,*7B
1495537546.85,1700,17.38,74070.5,0.45,-1.25,-1.25,0,*7A
1495537548.05,1701,17.38,74068.0,0.47,-1.17,-1.25,0,*78
1495537549.22,1702,17.38,74066.8,0.45,-1.25,-1.25,0,*78
1495537550.39,1703,17.38,74068.3,0.45,-1.25,-1.25,0,*79
1495537551.59,1704,17.38,74068.0,0.47,-1.25,-1.25,0,*7C
1495537552.77,1705,17.38,74070.0,0.45,-1.25,-1.29,0,*73
1495537553.97,1706,17.38,74068.8,0.47,-1.25,-1.29,0,*72
1495537555.14,1707,17.38,74070.5,0.45,-1.25,-1.25,0,*7D
1495537556.32,1708,17.38,74068.3,0.45,-1.17,-1.29,0,*7F
1495537557.52,1709,17.38,74064.0,0.47,-1.25,-1.29,0,*7D
1495537558.7,1710,17.44,74070.8,0.45,-1.17,-1.25,0,*7A
1495537559.9,1711,17.38,74070.8,0.47,-1.25,-1.25,0,*78
1495537561.1,1712,17.38,74068.0,0.47,-1.25,-1.29,0,*77
1495537562.27,1713,17.38,74070.3,0.45,-1.29,-1.25,0,*74
1495537563.45,1714,17.38,74066.0,0.45,-1.17,-1.25,0,*7E
1495537564.68,1715,17.38,74066.0,0.47,-1.17,-1.13,0,*78
1495537565.86,1716,17.38,74068.3,0.45,-1.17,-1.17,0,*7D
1495537567.06,1717,17.38,74068.8,0.47,-1.25,-1.17,0,*7F
1495537568.24,1718,17.38,74070.3,0.45,-1.17,-1.17,0,*73
1495537569.47,1719,17.38,74070.5,0.47,-1.17,-1.13,0,*74
1495537570.67,1720,17.38,74070.8,0.47,-1.25,-1.17,0,*7B
1495537571.84,1721,17.38,74068.5,0.45,-1.25,-1.25,0,*79
1495537573.07,1722,17.38,74068.3,0.47,-1.13,-1.17,0,*7C
1495537574.25,1723,17.38,74070.3,0.45,-1.17,-1.25,0,*7A
1495537575.47,1724,17.38,74066.5,0.47,-1.13,-1.17,0,*7A
1495537576.68,1725,17.38,74068.8,0.47,-1.17,-1.17,0,*7F
1495537577.86,1726,17.38,74072.0,0.45,-1.17,-1.17,0,*7E
1495537579.07,1727,17.38,74070.0,0.47,-1.17,-1.17,0,*7D
1495537580.25,1728,17.38,74068.8,0.45,-1.17,-1.17,0,*70
1495537581.45,1729,17.38,74068.5,0.45,-1.13,-1.17,0,*75
1495537582.66,1730,17.38,74066.0,0.47,-1.17,-1.25,0,*7A
1495537583.84,1731,17.38,74072.0,0.45,-1.17,-1.17,0,*78
1495537585.02,1732,17.38,74068.8,0.45,-1.17,-1.17,0,*7B
1495537586.2,1733,17.38,74066.5,0.45,-1.17,-1.17,0,*7A
1495537587.43,1734,17.38,74070.5,0.47,-1.13,-1.25,0,*7A
1495537588.61,1735,17.38,74070.0,0.45,-1.17,-1.25,0,*7D
1495537589.78,1736,17.38,74070.5,0.45,-1.17,-1.25,0,*7E
1495537590.96,1737,17.38,74068.5,0.45,-1.17,-1.25,0,*7F
1495537592.14,1738,17.38,74070.0,0.45,-1.25,-1.17,0,*70
1495537593.32,1739,17.38,74070.5,0.45,-1.17,-1.25,0,*71
1495537594.5,1740,17.38,74070.0,0.45,-1.17,-1.17,0,*7E
1495537595.7,1741,17.38,74070.8,0.47,-1.25,-1.17,0,*7C
1495537596.88,1742,17.38,74068.5,0.45,-1.25,-1.17,0,*7D
1495537598.06,1743,17.38,74070.5,0.45,-1.17,-1.17,0,*7D
1495537599.23,1744,17.38,74066.3,0.45,-1.25,-1.17,0,*7B
1495537600.43,1745,17.38,74070.0,0.45,-1.25,-1.13,0,*7E
1495537601.63,1746,17.38,74070.3,0.47,-1.17,-1.25,0,*7B
1495537602.83,1747,17.38,74068.8,0.47,-1.25,-1.25,0,*7B
1495537604.03,1748,17.38,74068.0,0.47,-1.25,-1.17,0,*75
1495537605.23,1749,17.38,74068.8,0.47,-1.25,-1.29,0,*79
1495537606.43,1750,17.38,74070.5,0.47,-1.25,-1.25,0,*7D
1495537607.6,1751,17.38,74070.3,0.45,-1.25,-1.17,0,*7F
1495537608.8,1752,17.38,74070.8,0.47,-1.25,-1.17,0,*7E
1495537609.98,1753,17.38,74070.5,0.45,-1.17,-1.25,0,*7D
1495537611.16,1754,17.38,74066.5,0.45,-1.25,-1.25,0,*7B
1495537612.33,1755,17.38,74068.8,0.45,-1.25,-1.25,0,*7A
1495537613.52,1756,17.38,74068.3,0.47,-1.25,-1.25,0,*7B
1495537614.7,1757,17.38,74070.0,0.45,-1.25,-1.25,0,*78
1495537615.87,1758,17.38,74070.0,0.45,-1.25,-1.25,0,*77
1495537617.07,1759,17.38,74070.3,0.47,-1.25,-1.25,0,*74
1495537618.26,1760,17.38,74070.5,0.47,-1.25,-1.25,0,*7E
1495537619.46,1761,17.38,74070.8,0.47,-1.29,-1.25,0,*73
1495537620.64,1762,17.38,74070.5,0.45,-1.29,-1.25,0,*72
1495537621.84,1763,17.38,74068.0,0.47,-1.25,-1.25,0,*7D
1495537623.04,1764,17.38,74070.3,0.47,-1.29,-1.25,0,*76
1495537624.23,1765,17.38,74068.3,0.47,-1.25,-1.25,0,*7B
1495537625.41,1766,17.38,74070.5,0.45,-1.29,-1.25,0,*76
1495537626.58,1767,17.38,74068.0,0.45,-1.25,-1.25,0,*7B
1495537627.75,1768,17.38,74070.0,0.45,-1.25,-1.25,0,*74
1495537628.93,1769,17.38,74068.3,0.45,-1.25,-1.25,0,*75
1495537630.11,1770,17.38,74070.0,0.45,-1.29,-1.17,0,*70
1495537631.28,1771,17.38,74068.8,0.45,-1.25,-1.17,0,*7D
1495537632.48,1772,17.38,74068.3,0.47,-1.25,-1.17,0,*7C
1495537633.69,1773,17.38,74070.8,0.47,-1.29,-1.29,0,*7C
1495537634.87,1774,17.38,74074.3,0.45,-1.29,-1.29,0,*79
1495537636.04,1775,17.38,74070.0,0.45,-1.25,-1.25,0,*78
1495537637.24,1776,17.38,74068.0,0.47,-1.25,-1.17,0,*78
1495537638.42,1777,17.38,74070.0,0.45,-1.29,-1.17,0,*77
1495537639.59,1778,17.38,74068.0,0.45,-1.25,-1.17,0,*74
1495537640.81,1779,17.38,74070.8,0.47,-1.25,-1.13,0,*73
1495537641.99,1780,17.38,74068.3,0.45,-1.25,-1.17,0,*73
1495537643.2,1781,17.38,74070.3,0.47,-1.17,-1.17,0,*71
1495537644.37,1782,17.38,74070.3,0.45,-1.25,-1.17,0,*71
1495537645.57,1783,17.38,74068.5,0.47,-1.25,-1.17,0,*72
1495537646.77,1784,17.38,74070.8,0.47,-1.25,-1.17,0,*75
1495537647.97,1785,17.38,74070.3,0.47,-1.29,-1.25,0,*79
1495537649.17,1786,17.38,74068.8,0.47,-1.25,-1.25,0,*76
1495537650.37,1787,17.38,74068.8,0.47,-1.25,-1.17,0,*76
1495537651.58,1788,17.38,74068.8,0.47,-1.17,-1.25,0,*79
1495537652.75,1789,17.38,74068.0,0.45,-1.25,-1.25,0,*7B
1495537653.92,1790,17.38,74068.5,0.45,-1.29,-1.25,0,*7F
1495537655.1,1791,17.38,74072.5,0.45,-1.29,-1.29,0,*72
1495537656.28,1792,17.38,74070.0,0.45,-1.29,-1.29,0,*71
1495537657.45,1793,17.38,74066.8,0.45,-1.25,-1.25,0,*70
1495537658.65,1794,17.38,74070.0,0.47,-1.29,-1.25,0,*79
1495537659.83,1795,17.38,74068.5,0.45,-1.25,-1.29,0,*7A
1495537661.03,1796,17.38,74070.8,0.47,-1.25,-1.17,0,*76
1495537662.21,1797,17.38,74068.8,0.45,-1.25,-1.17,0,*75
1495537663.38,1798,17.38,74068.8,0.45,-1.25,-1.17,0,*7A
1495537664.56,1799,17.38,74072.0,0.45,-1.25,-1.29,0,*76
1495537665.74,1800,17.38,74070.8,0.45,-1.29,-1.29,0,*75
1495537666.91,1801,17.38,74070.0,0.45,-1.29,-1.25,0,*78
1495537668.09,1802,17.38,74070.5,0.45,-1.29,-1.25,0,*7B
1495537669.27,1803,17.38,74070.8,0.45,-1.25,-1.29,0,*7A
1495537670.44,1804,17.38,74070.8,0.45,-1.29,-1.25,0,*7D
1495537671.64,1805,17.38,74070.3,0.47,-1.29,-1.25,0,*7E
1495537672.82,1806,17.38,74068.3,0.45,-1.25,-1.29,0,*7F
1495537674.02,1807,17.38,74068.8,0.47,-1.25,-1.25,0,*70
1495537675.19,1808,17.38,74070.0,0.45,-1.25,-1.17,0,*7C
1495537676.37,1809,17.38,74068.3,0.45,-1.25,-1.29,0,*70
1495537677.56,1810,17.38,74066.8,0.47,-1.25,-1.25,0,*76
1495537678.76,1811,17.38,74068.0,0.47,-1.25,-1.25,0,*77
1495537679.93,1812,17.38,74070.0,0.45,-1.25,-1.25,0,*76
1495537681.11,1813,17.38,74068.0,0.45,-1.25,-1.25,0,*77
1495537682.3,1814,17.38,74068.3,0.47,-1.25,-1.29,0,*7E
1495537683.51,1815,17.38,74066.8,0.47,-1.29,-1.25,0,*7F
1495537684.71,1816,17.44,74072.3,0.47,-1.29,-1.25,0,*7C
1495537685.9,1817,17.38,74070.5,0.47,-1.25,-1.25,0,*71
1495537687.1,1818,17.38,74064.5,0.47,-1.25,-1.25,0,*7E
1495537688.3,1819,17.38,74070.8,0.47,-1.29,-1.29,0,*7F
1495537689.51,1820,17.38,74068.0,0.47,-1.29,-1.29,0,*75
1495537690.68,1821,17.38,74070.5,0.45,-1.29,-1.25,0,*7A
1495537691.88,1822,17.38,74068.3,0.47,-1.25,-1.29,0,*7B
1495537693.11,1823,17.38,74064.3,0.47,-1.25,-1.35,0,*77
1495537694.29,1824,17.38,74064.8,0.45,-1.29,-1.29,0,*73
1495537695.49,1825,17.38,74068.8,0.47,-1.29,-1.29,0,*70
1495537696.7,1826,17.38,74070.5,0.47,-1.29,-1.29,0,*73
1495537697.9,1827,17.38,74070.8,0.47,-1.29,-1.29,0,*72
1495537699.07,1828,17.38,74066.5,0.45,-1.25,-1.29,0,*73
1495537700.28,1829,17.38,74070.5,0.47,-1.29,-1.29,0,*7C
1495537701.5,1830,17.38,74070.5,0.47,-1.35,-1.29,0,*79
1495537702.7,1831,17.38,74068.0,0.45,-1.35,-1.29,0,*7A
1495537703.93,1832,17.38,74068.3,0.47,-1.25,-1.35,0,*77
1495537705.18,1833,17.38,74070.0,0.47,-1.35,-1.35,0,*77
1495537706.43,1834,17.38,74068.5,0.47,-1.35,-1.35,0,*70
1495537707.66,1835,17.38,74070.0,0.47,-1.29,-1.35,0,*7C
1495537708.91,1836,17.38,74070.0,0.47,-1.35,-1.35,0,*72
1495537710.14,1837,17.38,74066.8,0.45,-1.35,-1.39,0,*7D
1495537711.37,1838,17.38,74066.5,0.47,-1.29,-1.39,0,*7D
1495537712.61,1839,17.38,74070.3,0.47,-1.29,-1.39,0,*7C
1495537713.84,1840,17.38,74070.3,0.47,-1.29,-1.35,0,*7E
1495537715.07,1841,17.38,74070.0,0.47,-1.29,-1.39,0,*73
1495537716.27,1842,17.38,74068.8,0.45,-1.29,-1.35,0,*7E
1495537717.5,1843,17.38,74070.5,0.47,-1.25,-1.35,0,*71
1495537718.73,1844,17.38,74068.8,0.47,-1.29,-1.35,0,*7A
1495537719.98,1845,17.38,74064.3,0.47,-1.35,-1.39,0,*7A